Location: Caltech
(34.1382°N, 118.1253°W)
Time: 13:21:15
(UTC-07:00)

Uribyol 2 - Visible Passes

Search period start: 30 May 2016 00:00
Search period end: 09 June 2016 00:00
Orbit: 783 x 796 km, 98.7° (Epoch: 29 May)

Date Brightness Start Highest point End Pass type
(mag) Time Alt. Az. Time Alt. Az. Time Alt. Az.
30 May ? 02:33:36 10° NE 02:36:54 17° E 02:38:48 14° ESE visible
30 May ? 04:11:31 10° N 04:16:32 48° WNW 04:19:32 23° SW visible
31 May ? 03:41:45 10° NNE 03:47:01 85° ESE 03:49:34 32° S visible
01 Jun ? 03:12:24 10° NNE 03:17:22 42° E 03:19:36 28° SSE visible
01 Jun ? 04:52:44 10° NNW 04:56:27 20° WNW 05:00:11 10° WSW visible
02 Jun ? 02:43:39 10° NE 02:47:36 21° E 02:49:39 17° SE visible
02 Jun ? 04:22:17 10° N 04:27:06 38° WNW 04:30:22 19° SW visible
03 Jun ? 03:52:22 10° N 03:57:37 76° WNW 04:00:24 28° SSW visible
04 Jun ? 03:22:52 10° NNE 03:28:01 54° E 03:30:26 30° SSE visible
04 Jun ? 05:03:51 10° NNW 05:06:57 16° WNW 05:10:03 10° WSW visible
05 Jun ? 02:53:52 10° NE 02:58:17 27° E 03:00:28 20° SE visible
05 Jun ? 04:33:07 10° N 04:37:38 30° WNW 04:41:11 15° WSW visible
06 Jun ? 02:25:57 10° ENE 02:28:26 13° E 02:30:30 11° ESE visible
06 Jun ? 04:03:02 10° N 04:08:12 60° WNW 04:11:12 25° SW visible
07 Jun ? 03:33:24 10° NNE 03:38:38 70° ESE 03:41:14 30° S visible
08 Jun ? 03:04:11 10° NNE 03:08:56 34° E 03:11:16 24° SE visible
08 Jun ? 04:44:00 10° NNW 04:48:10 24° WNW 04:51:58 11° WSW visible
